Showing default

ECHOSTAR 19, 41893

Orbit data source: Space-Track

ECHOSTAR 19, 41893 is a payload satellite owned by Echostar/HNS (US) in GEO that was launched on Sun, 18 Dec 2016 UTC via an ATLAS V 431 launch vehicle from the Air Force Eastern Test Range (AFETR). Payload-class satellites include a variety of spacecraft equipped with specific instruments for various scientific and technological missions. These include communications satellites like Starlink; space stations such as the ISS; scientific satellites like the Hubble; Earth observation satellites from companies like Planet Labs, Umbra, and HawkEye 360; GPS; miniature CubeSats for education and research; and military/defense satellites.

Loading next visibility...
Identifier
41893, 2016-079A
Orbit
GEO
Country
Flag of USUS
Related business
Manufacturer
SS/Loral (MDA)
Mission
Operational Commercial Communications
Bus & Motor
SSL-1300E, R-4D
Mass
6,675 kg wet, ~4,500 kg dry
Launch date (UTC)
2016-12-18 (9 years ago)
Launch vehicle
ATLAS V 431
Launch site
Air Force Eastern Test Range (AFETR)
Object type
Payload
Rocket body
Debris
Shape & HBR
Box + 2 Pan, 13.1 m
Radar Cross Section
48.712 m², Large (>1 m²)

Expand to show TLE details & history
Last TLE update: 8 hours ago

TLE from 8 hours ago
0 ECHOSTAR 19
1 41893U 16079A   25346.97049358 -.00000126  00000-0  00000-0 0  9993
2 41893   0.0181   6.2049 0001346 258.9845  68.9912  1.00270201 32837
Epoch: 2025-12-12T23:17Z
TLE epoch observation values (Epoch: 2025-12-12T23:17:30.645Z)
Latitude
-0.01201°
Longitude
-97.09388°
Altitude
35,784.494 km
Speed
3.075 km/s
True Right ascension
22h 16m 45s
True Declination
0° 00' 43"
Sunlit
Object was in daylight at epoch
Visualization orbit readout
Latitude
Unknown
Longitude
Unknown
Altitude
Unknown
Speed
Unknown
Apparent Right ascension
Unknown
Apparent Declination
Unknown
Sunlit
N/A
Visualization observer readout
Local Sidereal Time
05:24:08
Azimuth
Unknown
Elevation
Unknown
Doppler factor
Unknown
Orbital elements
Apogee altitude
35,793.785 km
Perigee altitude
35,782.434 km
Semi-major axis
42,166.246 km
Eccentricity
0.00013
Inclination
0.0181°
RAAN
6.2049°
Arg. of periapsis
258.9845°
True anomaly
69.0056°
Mean anomaly
68.9912°
Eccentric anomaly
68.9984°
Mean motion
0.25067 °/min
Orbital period
1,436.17 mins
BSTAR
0
Loading maneuver chart data...
Computing Atmospheric mass density...
Loading historical data...
Loading historical data...
Loading historical data...
Loading historical data...
Loading historical data...
Loading historical data...
Loading historical data...
Other satellites on launch #79 in the year 2016 (2016-12-18 UTC)

Documentation

Showing up to 5 results
|